Location: Krakow
(50.0212°N, 19.9423°E)
Time: 23:49:54
(UTC+02:00)

NOAA 18 - Pass Details

Date: 15 August 2024
Orbit: 837 x 859 km, 98.9° (Epoch: 19 September)

Event Time Altitude Azimuth Distance (km) Brightness Sun altitude
Exits shadow 23:35:02 28° 230° (SW) 1,547 6.3 -24.5°
Maximum altitude 23:36:44 34° 264° (W) 1,377 6.3 -24.6°
Drops below altitude 10° 23:41:46 10° 329° (NNW) 2,506 8.6 -24.8°
Sets 23:44:24 0° 339° (NNW) 3,447 9.8 -24.9°
